• In Romania
  • List of Countries
  • For 7 days
  • Water Temperature
  • Satellite Maps
  • Weather Map
  • Weather Widgets
  • user-avatar
    Login

    Hourly Weather Ghent

    Today, 24 September, Monday

    Time Temperature Precipitation Wind Pressure Humidity
    00:00 +8°C° 0 mm 4 mps 770 mmHg 83%
    01:00 +8°C° 0 mm 4 mps 771 mmHg 83%
    02:00 +9°C° 0 mm 3 mps 772 mmHg 83%
    03:00 +8°C° 0 mm 3 mps 772 mmHg 83%
    04:00 +8°C° 0 mm 3 mps 773 mmHg 83%
    05:00 +8°C° 0 mm 3 mps 773 mmHg 83%
    06:00 +8°C° 0 mm 3 mps 774 mmHg 84%
    07:00 +10°C° 0.1 mm 4 mps 774 mmHg 78%
    08:00 +12°C° 0.1 mm 4 mps 775 mmHg 73%
    09:00 +13°C° 0.1 mm 4 mps 775 mmHg 68%
    10:00 +14°C° 0.1 mm 5 mps 775 mmHg 64%
    11:00 +15°C° 0.1 mm 5 mps 775 mmHg 60%
    12:00 +15°C° 0.1 mm 5 mps 775 mmHg 56%
    13:00 +15°C° 0 mm 5 mps 775 mmHg 56%
    14:00 +15°C° 0 mm 5 mps 775 mmHg 56%
    15:00 +15°C° 0 mm 5 mps 775 mmHg 56%
    16:00 +14°C° 0 mm 4 mps 776 mmHg 61%
    17:00 +12°C° 0 mm 4 mps 776 mmHg 65%
    18:00 +11°C° 0 mm 3 mps 776 mmHg 70%
    19:00 +10°C° 0 mm 3 mps 776 mmHg 71%
    20:00 +10°C° 0 mm 2 mps 777 mmHg 72%
    21:00 +9°C° 0 mm 2 mps 777 mmHg 74%
    22:00 +10°C° 0 mm 1 mps 777 mmHg 75%
    23:00 +9°C° 0 mm 1 mps 777 mmHg 77%

    Tomorrow, 25 September, Tuesday

    Time Temperature Precipitation Wind Pressure Humidity
    00:00 +9°C° 0 mm 1 mps 777 mmHg 78%
    01:00 +9°C° 0 mm 1 mps 777 mmHg 80%
    02:00 +9°C° 0 mm 1 mps 777 mmHg 81%
    03:00 +8°C° 0 mm 1 mps 777 mmHg 82%
    04:00 +8°C° 0 mm 1 mps 777 mmHg 83%
    05:00 +8°C° 0 mm 1 mps 777 mmHg 84%
    06:00 +8°C° 0 mm 1 mps 777 mmHg 85%
    07:00 +10°C° 0 mm 1 mps 778 mmHg 78%
    08:00 +12°C° 0 mm 1 mps 778 mmHg 71%
    09:00 +13°C° 0 mm 1 mps 778 mmHg 64%
    10:00 +14°C° 0 mm 2 mps 778 mmHg 60%
    11:00 +15°C° 0 mm 2 mps 778 mmHg 55%
    12:00 +16°C° 0 mm 2 mps 777 mmHg 50%
    13:00 +16°C° 0 mm 2 mps 777 mmHg 49%
    14:00 +18°C° 0 mm 1 mps 777 mmHg 47%
    15:00 +18°C° 0 mm 1 mps 776 mmHg 46%
    16:00 +15°C° 0 mm 1 mps 776 mmHg 50%
    17:00 +14°C° 0 mm 1 mps 776 mmHg 55%
    18:00 +12°C° 0 mm 1 mps 776 mmHg 59%
    19:00 +12°C° 0 mm 2 mps 776 mmHg 61%
    20:00 +10°C° 0 mm 2 mps 776 mmHg 63%
    21:00 +10°C° 0 mm 2 mps 776 mmHg 65%
    22:00 +9°C° 0 mm 2 mps 776 mmHg 66%
    23:00 +9°C° 0 mm 2 mps 776 mmHg 68%

    Day after tomorrow, 26 September, Wednesday

    Time Temperature Precipitation Wind Pressure Humidity
    00:00 +9°C° 0 mm 2 mps 776 mmHg 69%
    01:00 +8°C° 0 mm 2 mps 775 mmHg 69%
    02:00 +8°C° 0 mm 2 mps 775 mmHg 70%
    03:00 +8°C° 0 mm 2 mps 775 mmHg 70%
    04:00 +8°C° 0 mm 2 mps 775 mmHg 69%
    05:00 +7°C° 0 mm 2 mps 775 mmHg 69%
    06:00 +7°C° 0 mm 2 mps 775 mmHg 68%
    07:00 +9°C° 0 mm 2 mps 775 mmHg 62%
    08:00 +12°C° 0 mm 2 mps 775 mmHg 57%
    09:00 +14°C° 0 mm 2 mps 775 mmHg 51%
    10:00 +16°C° 0 mm 2 mps 775 mmHg 48%
    11:00 +17°C° 0 mm 2 mps 774 mmHg 44%
    12:00 +19°C° 0 mm 2 mps 774 mmHg 41%
    13:00 +19°C° 0 mm 2 mps 774 mmHg 40%
    14:00 +19°C° 0 mm 2 mps 774 mmHg 40%
    15:00 +20°C° 0 mm 2 mps 773 mmHg 40%
    16:00 +18°C° 0 mm 2 mps 773 mmHg 44%
    17:00 +16°C° 0 mm 1 mps 773 mmHg 49%
    18:00 +14°C° 0 mm 1 mps 773 mmHg 53%
    19:00 +14°C° 0 mm 1 mps 773 mmHg 54%
    20:00 +14°C° 0 mm 1 mps 774 mmHg 55%
    21:00 +13°C° 0 mm 1 mps 774 mmHg 56%
    22:00 +13°C° 0 mm 1 mps 774 mmHg 57%
    23:00 +13°C° 0 mm 2 mps 773 mmHg 57%

    27 September, Thursday

    Time Temperature Precipitation Wind Pressure Humidity
    00:00 +12°C° 0 mm 2 mps 773 mmHg 58%
    01:00 +12°C° 0 mm 2 mps 773 mmHg 59%
    02:00 +12°C° 0 mm 2 mps 773 mmHg 60%
    03:00 +10°C° 0 mm 2 mps 773 mmHg 60%
    04:00 +10°C° 0 mm 2 mps 773 mmHg 62%
    05:00 +10°C° 0 mm 2 mps 772 mmHg 63%
    06:00 +9°C° 0 mm 2 mps 772 mmHg 64%
    07:00 +12°C° 0 mm 2 mps 772 mmHg 60%
    08:00 +14°C° 0 mm 2 mps 772 mmHg 56%
    09:00 +16°C° 0 mm 2 mps 772 mmHg 51%
    10:00 +18°C° 0 mm 2 mps 772 mmHg 48%
    11:00 +19°C° 0 mm 2 mps 771 mmHg 44%
    12:00 +21°C° 0 mm 3 mps 771 mmHg 41%
    13:00 +21°C° 0 mm 2 mps 770 mmHg 41%
    14:00 +21°C° 0 mm 2 mps 770 mmHg 42%
    15:00 +23°C° 0 mm 2 mps 769 mmHg 42%
    16:00 +20°C° 0 mm 2 mps 769 mmHg 47%
    17:00 +18°C° 0 mm 2 mps 768 mmHg 52%
    18:00 +16°C° 0 mm 2 mps 768 mmHg 56%
    19:00 +15°C° 0 mm 2 mps 768 mmHg 58%
    20:00 +15°C° 0 mm 2 mps 768 mmHg 59%
    21:00 +14°C° 0 mm 2 mps 768 mmHg 61%
    22:00 +14°C° 0 mm 2 mps 768 mmHg 63%
    23:00 +14°C° 0 mm 2 mps 767 mmHg 65%

    28 September, Friday

    Time Temperature Precipitation Wind Pressure Humidity
    00:00 +13°C° 0 mm 2 mps 767 mmHg 67%
    01:00 +13°C° 0 mm 2 mps 767 mmHg 72%
    02:00 +13°C° 0 mm 2 mps 766 mmHg 76%
    03:00 +13°C° 0 mm 2 mps 766 mmHg 80%
    04:00 +13°C° 0 mm 2 mps 766 mmHg 83%
    05:00 +13°C° 0 mm 2 mps 766 mmHg 85%
    06:00 +12°C° 0 mm 2 mps 766 mmHg 87%
    07:00 +14°C° 0 mm 2 mps 767 mmHg 81%
    08:00 +17°C° 0 mm 3 mps 767 mmHg 74%
    09:00 +19°C° 0 mm 3 mps 767 mmHg 68%
    10:00 +19°C° 0 mm 4 mps 767 mmHg 65%
    11:00 +20°C° 0 mm 5 mps 768 mmHg 62%
    12:00 +20°C° 0 mm 6 mps 768 mmHg 59%
    13:00 +20°C° 0 mm 6 mps 768 mmHg 61%
    14:00 +18°C° 0 mm 7 mps 768 mmHg 62%
    15:00 +18°C° 0 mm 7 mps 768 mmHg 63%
    16:00 +16°C° 0 mm 7 mps 769 mmHg 64%
    17:00 +15°C° 0 mm 6 mps 770 mmHg 65%
    18:00 +13°C° 0 mm 6 mps 770 mmHg 66%
    19:00 +11°C° 0 mm 6 mps 771 mmHg 67%
    20:00 +10°C° 0 mm 5 mps 771 mmHg 67%
    21:00 +9°C° 0 mm 5 mps 772 mmHg 68%
    22:00 +9°C° 0 mm 5 mps 772 mmHg 70%
    23:00 +8°C° 0 mm 5 mps 772 mmHg 72%

    29 September, Saturday

    Time Temperature Precipitation Wind Pressure Humidity
    00:00 +8°C° 0 mm 4 mps 772 mmHg 74%
    01:00 +7°C° 0 mm 4 mps 772 mmHg 76%
    02:00 +7°C° 0 mm 4 mps 772 mmHg 79%
    03:00 +7°C° 0 mm 4 mps 772 mmHg 81%
    04:00 +6°C° 0 mm 4 mps 772 mmHg 83%
    05:00 +6°C° 0 mm 4 mps 772 mmHg 84%
    06:00 +6°C° 0 mm 4 mps 772 mmHg 86%
    07:00 +7°C° 0 mm 4 mps 772 mmHg 79%
    08:00 +9°C° 0 mm 5 mps 772 mmHg 71%
    09:00 +12°C° 0 mm 5 mps 772 mmHg 63%
    10:00 +13°C° 0 mm 5 mps 772 mmHg 60%
    11:00 +14°C° 0 mm 5 mps 771 mmHg 57%
    12:00 +15°C° 0 mm 5 mps 771 mmHg 53%
    13:00 +15°C° 0 mm 5 mps 770 mmHg 53%
    14:00 +15°C° 0 mm 5 mps 770 mmHg 52%
    15:00 +15°C° 0 mm 5 mps 769 mmHg 52%
    16:00 +14°C° 0 mm 5 mps 769 mmHg 55%
    17:00 +13°C° 0 mm 5 mps 769 mmHg 58%
    18:00 +11°C° 0 mm 4 mps 769 mmHg 62%
    19:00 +11°C° 0 mm 4 mps 769 mmHg 61%
    20:00 +10°C° 0 mm 4 mps 769 mmHg 61%
    21:00 +10°C° 0 mm 4 mps 769 mmHg 60%
    22:00 +8°C° 0 mm 4 mps 768 mmHg 62%
    23:00 +8°C° 0 mm 3 mps 768 mmHg 63%
    Show more